Miscellaneous Local Product
Issued by NWS Hastings, NE

Home | Current Version | Previous Version | Text Only | Print | Product List | Glossary Off
Versions: 1 2 3 4 5 6 7 8 9 10 11 12 13 14 15 16 17 18 19 20 21 22 23 24 25 26 27 28 29 30 31 32 33 34 35 36 37 38 39 40 41 42 43 44 45 46 47 48 49 50

712
AXUS43 KGID 200602
MISGRI

GID CWA HOURLY WEATHER ROUNDUP
NATIONAL WEATHER SERVICE HASTINGS NE
100 AM CDT SUN AUG 20 2017

NOTE: "FAIR" INDICATES FEW OR NO CLOUDS BELOW 12,000 FEET WITH NO
SIGNIFICANT WEATHER AND/OR OBSTRUCTIONS TO VISIBILITY.

...SOUTH CENTRAL NEBRASKA...

CITY           SKY/WX    TMP DP  RH WIND       PRES   REMARKS
GRAND ISLAND   LGT RAIN  66  63  90 NE18      29.94F
HASTINGS       CLOUDY    67  61  81 NE18G31   29.93R THUNDER
KEARNEY        PTCLDY    69  63  81 SE15      29.91F
ORD            CLOUDY    69  55  60 S14G23    29.84S
YORK           TSTM      64  64 100 N16G39    29.98R
AURORA         CLOUDY    65  63  91 E9        29.92F
LEXINGTON      CLEAR     74  63  68 E8        29.89S
HOLDREGE       CLEAR     67  63  86 N12       29.90R
HEBRON         CLOUDY    80  69  69 S10       29.85R

...NEBRASKA PANHANDLE...

CITY           SKY/WX    TMP DP  RH WIND       PRES   REMARKS
CHADRON        CLEAR     65  45  48 CALM      29.93R
ALLIANCE       CLEAR     59  51  75 CALM      29.93S
SCOTTSBLUFF    CLEAR     63  48  58 E5        29.95R
SIDNEY         CLOUDY    57  52  83 CALM      29.98R

...WESTERN AND NORTH CENTRAL NEBRASKA...

CITY           SKY/WX    TMP DP  RH WIND       PRES   REMARKS
VALENTINE      CLEAR     70  58  65 SW6       29.86S
AINSWORTH      CLEAR     69  61  75 SW8       29.85S
ONEILL         CLOUDY    69  60  73 S7        29.85R
BROKEN BOW     CLEAR     67  59  75 E5        29.89R
IMPERIAL       CLEAR     67  59  75 W8        29.89F
NORTH PLATTE   CLEAR     69  65  86 NE7       29.87S
MCCOOK         CLEAR     75  63  66 SW10      29.87R

...EASTERN NEBRASKA...

CITY           SKY/WX    TMP DP  RH WIND       PRES   REMARKS
NORFOLK        CLOUDY    76  56  49 S24G35    29.83R
SO SIOUX CITY  CLOUDY    73  65  75 E23       29.82F
TEKAMAH        LGT RAIN  71  67  87 SW10      29.91S
COLUMBUS       TSTM      67  62  84 S15G30    29.95R
ALBION         CLOUDY    71  58  64 S25G31    29.83F
OMAHA EPPLEY   TSTM      75  66  73 NW15G21   29.92R
OFFUTT AFB     CLOUDY    78  65  64 N7G31     29.89R THUNDER
MILLARD        CLOUDY    76  70  81 N6G18     29.92R
LINCOLN        TSTM      69  64  84 NW25G54   29.98R
NEBRASKA CITY  CLOUDY    77  73  86 S20       29.82F
BEATRICE       CLOUDY    81  73  76 S13       29.84F
FALLS CITY     CLOUDY    72  70  93 SE9       29.86F

...NORTHERN KANSAS...

CITY           SKY/WX    TMP DP  RH WIND       PRES   REMARKS
GOODLAND       CLEAR     71  52  50 S14       29.95S
HILL CITY      CLEAR     79  64  60 S7        29.89R
NORTON         CLEAR     75  55  50 S9        29.87S
PHILLIPSBURG   CLEAR     77  61  57 S6        29.86S
SMITH CENTER   MOCLDY    77  66  69 S9        29.86F
HAYS           CLOUDY    80  66  62 S9        29.91R
RUSSELL        CLOUDY    79  66  64 S10       29.89R
CONCORDIA      CLEAR     79  69  71 S15G28    29.85F
SALINA         CLEAR     80  67  64 S9        29.88F
TOPEKA         CLOUDY    81  77  88 S8        29.89F



USA.gov is the U.S. government's official web portal to all federal, state and local government web resources and services.